Theta_e
292 289 287 290 289 286 286 285 284 287 291 290 289 289 293 293 291 292 293 293 295 295 299 297 297 297 297 300 301 304 308 309 308 308 307 305 305 303 302 304 304 305 308 308
288 286 291 291 290 289 286 285 285 288 289 290 289 289 292 293 292 294 296 297 296 297 295 295 295 295 297 299 301 303 307 307 307 310 306 303 302 298 298 297 299 301 300 303
287 289 292 291 288 287 286 285 285 287 288 288 286 285 288 291 293 295 295 297 298 297 297 295 293 294 296 298 300 303 307 306 307 306 298 296 297 295 294 294 294 295 300 299
288 291 290 288 287 289 284 289 288 287 286 282 286 280 286 289 291 291 294 295 296 297 296 295 293 293 295 297 301 303 307 305 305 299 301 301 301 298 296 295 293 292 294 294
288 289 289 287 289 290 287 289 288 286 284 282 282 282 285 287 288 292 295 297 297 294 294 294 293 295 296 297 299 303 305 305 303 300 302 303 303 300 295 292 290 290 289 290
287 290 291 291 290 291 290 288 286 284 283 279 282 283 282 285 289 291 293 296 294 293 293 293 292 293 294 297 299 302 304 304 300 300 300 303 301 292 291 290 288 288 288 286
286 288 290 291 288 289 288 286 279 277 276 278 281 280 284 289 289 292 294 295 292 293 293 291 290 291 293 295 298 301 303 303 299 299 300 301 297 295 293 291 289 286 285 284
283 281 288 291 290 288 287 286 279 272 274 277 281 279 285 290 292 292 291 291 291 293 292 291 290 291 292 295 297 300 301 301 298 298 298 299 296 295 294 292 290 289 288 286
282 282 287 288 289 292 285 283 286 282 270 275 281 283 288 289 290 291 292 290 291 292 292 291 290 291 292 294 297 299 301 300 297 297 296 293 293 294 292 290 289 287 287 284
286 281 285 286 289 288 287 289 282 280 273 270 279 280 284 288 290 292 291 292 292 292 291 290 289 290 292 294 297 300 301 298 295 296 293 293 292 292 290 288 286 286 284 283
288 285 282 285 284 284 285 284 283 284 280 275 274 284 286 289 290 291 292 292 292 292 291 290 289 290 291 293 295 298 296 293 292 293 292 291 290 290 288 287 285 284 283 283
290 286 280 282 285 286 284 284 285 281 278 279 279 285 288 289 289 290 291 291 290 291 290 289 289 289 289 291 291 293 294 293 292 292 291 290 289 289 287 286 284 283 282 282
292 286 277 282 283 283 284 285 288 285 282 279 278 284 288 288 289 290 291 291 291 290 289 288 287 287 288 289 290 291 293 292 291 291 290 288 287 286 286 285 284 283 282 281
297 288 284 282 284 285 282 284 287 288 283 283 284 288 289 287 288 290 291 291 291 290 289 288 286 287 288 288 289 290 290 291 289 290 290 288 286 285 286 284 283 282 282 281
295 287 287 288 286 285 284 284 286 286 287 284 288 287 292 292 292 295 298 292 291 290 288 288 287 286 286 287 287 288 290 289 289 288 288 287 287 286 285 284 283 282 281 281
294 287 288 287 290 287 286 288 286 287 288 288 289 288 296 297 292 292 295 295 292 291 290 291 289 287 286 287 287 288 288 288 288 287 287 286 285 285 284 283 282 281 280 280
289 285 285 284 285 286 283 287 289 290 288 288 285 291 296 294 294 296 297 295 293 293 293 292 291 290 289 288 288 287 287 287 286 286 286 285 285 283 283 282 281 280 279 279
286 285 285 283 285 278 287 289 293 291 292 293 293 294 296 295 294 296 294 293 293 293 293 293 292 291 289 288 286 287 286 285 285 285 285 284 283 283 282 281 280 280 280 279
293 289 285 281 281 285 288 284 286 287 288 294 293 295 296 297 289 293 293 292 292 291 291 291 290 290 290 287 285 284 283 283 283 283 283 283 282 282 281 280 280 280 279 279
289 291 285 284 279 277 284 284 284 290 285 291 294 294 294 290 284 292 288 287 287 286 286 286 285 286 285 285 283 282 281 281 281 282 282 282 282 281 280 281 280 280 280 279
284 285 283 283 281 284 284 281 287 283 285 280 288 293 293 289 291 288 285 285 285 285 284 283 282 282 282 282 281 280 280 280 281 281 280 280 281 280 280 281 280 280 279 278
279 279 281 283 281 279 281 283 284 283 284 281 284 286 287 286 285 285 285 284 284 283 283 281 279 279 279 280 280 279 278 280 279 279 279 279 280 280 280 278 278 279 278 277
280 281 281 282 281 284 284 284 285 283 281 283 283 284 284 285 284 284 285 284 283 281 280 278 277 278 278 278 279 278 279 279 278 277 277 279 281 280 280 279 278 278 278 277
284 285 283 283 286 286 288 288 285 285 284 285 283 284 283 283 283 282 281 283 282 278 279 277 278 279 278 277 280 281 281 281 282 280 280 280 279 280 280 280 280 279 278 278
281 283 281 280 283 284 286 286 288 288 285 283 282 281 282 282 280 281 280 278 280 278 277 278 279 279 278 279 279 281 282 283 282 280 280 280 280 280 280 280 280 280 280 281
281 280 280 278 283 284 284 284 285 286 285 284 283 282 281 281 281 279 278 278 277 277 276 277 276 274 272 274 272 272 276 283 282 280 280 281 281 281 280 279 277 282 283 284
Wind_Speed
3 5 7 14 7 3 6 4 4 5 4 4 9 11 16 8 6 12 14 14 15 16 17 10 12 13 11 9 10 11 11 10 9 5 5 4 3 2 2 2 4 5 7 8
4 7 12 6 6 4 3 3 5 6 3 6 9 16 14 10 11 13 17 16 18 16 9 9 12 12 14 13 13 12 13 13 10 7 3 3 4 2 3 2 3 6 6 8
9 6 4 8 5 6 4 6 6 7 3 4 6 9 9 6 12 13 14 19 17 19 18 11 11 13 12 15 17 15 14 14 11 9 7 5 6 4 2 1 2 3 8 8
7 4 6 4 5 8 6 8 5 4 2 5 1 9 8 6 10 8 13 14 20 16 11 6 11 13 16 18 13 14 14 14 12 12 10 10 6 6 4 4 3 4 5 7
9 10 7 6 8 8 6 6 6 3 3 4 1 5 5 1 7 16 17 19 14 9 9 10 12 14 12 12 14 13 14 14 12 13 12 10 8 4 5 6 6 4 3 4
3 1 6 8 3 5 10 6 6 5 2 6 11 9 4 6 9 7 8 12 6 6 7 7 6 6 7 9 12 14 16 15 14 13 12 13 12 10 8 8 7 4 3 3
2 5 3 4 7 3 3 7 2 4 1 12 3 3 7 9 10 10 12 10 3 2 1 3 5 6 7 10 12 13 17 16 14 14 13 13 12 13 14 13 10 10 6 5
10 9 12 8 10 10 9 8 8 9 5 7 2 10 9 11 11 11 8 6 3 4 5 5 6 6 8 10 11 13 15 13 13 12 12 10 11 8 8 11 10 9 9 9
7 8 1 3 2 10 7 7 4 3 2 3 7 10 8 9 12 9 12 1 7 8 6 7 6 6 7 9 12 14 15 14 14 14 10 9 9 10 10 11 10 8 7 7
4 4 1 1 3 2 6 7 4 2 4 6 7 7 9 6 10 13 6 9 9 7 6 5 5 6 5 7 9 11 12 14 12 11 10 9 10 10 10 10 11 10 8 10
6 5 2 3 7 11 4 4 2 4 5 6 4 14 9 9 7 8 6 4 4 5 5 5 5 4 5 5 6 9 10 12 13 13 12 12 11 11 11 11 11 10 10 11
7 4 5 10 3 2 1 5 7 6 6 4 2 21 3 2 3 3 2 3 2 3 4 3 3 4 5 8 8 10 12 12 12 12 12 13 12 11 11 10 10 11 11 10
9 2 1 5 2 2 6 6 7 4 3 11 7 18 5 1 4 4 2 4 4 3 4 3 3 6 7 8 8 10 11 11 11 11 12 12 12 12 13 12 13 13 13 13
9 7 9 11 6 7 7 7 14 16 9 12 19 28 11 3 3 6 5 6 7 6 6 5 6 7 9 8 9 11 11 11 11 12 13 14 13 13 13 13 14 15 15 15
10 11 11 14 1 2 5 8 14 20 28 15 32 21 25 11 7 13 15 5 9 8 7 9 8 8 8 8 9 10 11 12 12 13 14 14 12 12 11 12 13 13 14 14
9 5 8 18 15 10 6 7 11 20 22 20 25 29 17 15 4 7 16 13 9 9 11 10 8 8 9 12 12 12 13 12 14 14 15 13 14 13 13 13 13 13 14 14
7 4 3 10 5 9 11 31 21 15 8 18 21 35 24 21 17 19 23 14 11 10 10 9 9 10 9 10 10 12 11 10 13 14 13 13 13 14 14 13 13 14 14 13
5 4 5 7 7 14 12 4 22 29 20 21 20 26 22 18 9 16 9 8 11 9 8 8 6 6 7 6 7 8 10 12 12 12 10 11 12 12 12 13 14 13 13 15
15 11 9 7 10 10 14 3 9 13 20 24 23 29 28 23 2 17 9 6 3 2 3 5 5 6 6 6 6 7 8 9 11 11 11 11 12 11 12 13 13 12 12 13
17 18 15 13 14 16 9 5 2 5 14 13 17 24 26 5 5 13 6 3 1 3 3 4 6 3 3 2 5 7 6 6 8 8 9 9 10 11 12 12 11 8 7 7
5 10 19 19 17 9 5 5 6 10 11 4 9 18 13 9 6 2 2 3 2 3 3 3 3 4 3 3 5 6 5 5 4 6 8 9 9 10 10 9 8 8 8 8
8 5 6 5 12 20 3 3 10 3 8 4 5 4 5 3 4 2 2 1 1 2 3 4 4 4 4 4 5 5 5 5 6 7 7 8 10 9 9 12 9 10 10 9
6 5 4 5 3 2 5 8 8 5 4 5 6 4 3 5 5 5 3 4 2 2 2 2 3 5 5 4 5 6 2 5 7 6 6 7 9 10 12 13 13 10 10 9
5 4 4 3 3 9 15 7 7 8 6 6 6 6 4 4 5 3 1 2 1 1 2 2 4 6 6 3 5 6 6 6 7 7 7 7 8 7 6 6 7 8 11 10
3 3 3 4 6 5 8 10 13 7 6 5 3 7 9 4 2 3 4 4 4 2 2 3 4 6 6 6 7 6 4 6 7 6 6 6 6 7 7 6 7 6 6 7
6 6 4 7 10 6 10 4 8 6 8 8 10 9 5 3 4 4 2 3 1 4 2 6 7 8 6 8 7 7 5 3 6 5 4 4 5 4 4 5 5 5 6 14
Wind_Direction
13 97 194 216 187 132 138 177 211 239 239 192 236 253 264 258 241 264 254 248 248 240 248 211 205 199 189 189 183 182 177 178 165 159 163 167 169 154 118 113 128 122 140 147
51 212 229 108 157 158 158 170 246 285 238 187 269 261 258 247 241 228 243 251 245 242 236 214 202 193 193 188 190 186 189 177 179 173 144 144 144 122 105 124 152 143 125 144
177 197 127 151 155 162 205 183 208 226 320 243 325 280 254 277 253 254 250 247 254 239 242 223 193 196 190 193 190 189 189 179 178 163 126 106 101 85 108 162 173 156 155 155
226 206 145 168 190 154 240 202 164 169 80 253 109 286 281 237 252 250 254 242 245 242 240 214 191 197 199 205 188 185 186 179 178 163 163 174 171 159 175 163 150 151 151 151
233 169 168 173 199 159 221 131 159 145 189 349 190 269 234 9 270 255 253 253 252 232 226 223 202 211 205 184 182 180 186 179 173 178 180 181 176 159 136 136 141 130 118 133
243 351 175 195 124 158 146 85 57 53 81 274 184 186 232 184 212 262 263 266 293 255 239 245 219 186 180 172 177 179 189 184 175 179 183 189 173 150 146 151 150 158 145 107
136 207 195 156 87 44 163 114 299 326 20 243 161 231 255 261 217 224 249 274 77 55 282 242 212 191 162 176 182 182 191 190 177 183 186 190 172 168 171 167 166 160 160 163
187 257 165 190 185 167 202 166 168 205 209 265 198 239 248 233 254 255 265 269 187 222 251 247 224 203 175 179 185 186 195 187 179 183 188 183 171 175 177 174 169 175 179 175
169 261 238 131 125 150 194 205 175 78 77 356 228 288 286 259 280 259 255 254 238 253 245 236 217 197 183 181 189 189 190 193 185 180 173 177 174 173 172 169 169 172 162 156
219 295 40 75 122 38 164 170 84 346 189 251 262 262 236 259 245 257 263 245 242 231 234 238 221 202 191 184 186 191 188 192 184 177 167 177 178 175 169 164 172 171 153 154
155 141 261 126 209 170 139 207 113 139 157 181 295 266 208 228 244 256 268 276 256 227 245 238 225 206 197 174 178 188 182 175 176 177 168 172 177 177 170 173 170 164 152 158
197 153 218 210 224 195 349 212 161 159 225 248 175 264 135 219 334 298 236 356 317 177 200 234 233 201 212 185 178 187 187 185 185 181 173 177 174 173 172 172 166 159 159 160
163 184 32 318 30 336 215 200 200 116 82 216 157 258 336 52 42 354 227 265 261 208 177 210 217 216 222 208 193 197 193 190 179 175 175 176 178 178 181 175 170 171 163 165
115 167 191 218 203 144 184 200 195 199 212 228 231 252 235 156 70 315 285 267 269 244 231 236 243 228 222 212 197 202 201 189 175 177 182 184 183 185 183 177 175 174 171 167
171 214 204 239 315 204 204 180 197 208 228 213 250 241 251 243 260 272 292 234 227 232 236 236 234 219 219 215 212 211 209 191 178 182 186 187 181 184 180 180 180 177 176 176
324 289 207 250 233 217 257 240 215 217 233 241 258 265 249 253 254 268 251 258 257 233 234 238 228 225 224 219 215 208 207 194 182 188 192 182 174 177 181 176 178 180 179 174
203 196 252 253 186 194 231 234 215 220 203 213 236 246 260 263 246 253 258 252 249 242 236 238 233 231 232 226 208 209 198 182 190 194 190 185 180 177 179 174 174 180 181 175
190 190 229 261 163 235 257 187 211 217 224 215 247 258 252 246 247 243 240 217 233 238 260 267 264 255 245 230 202 187 174 180 184 192 187 177 179 181 176 175 180 181 180 181
215 215 253 255 250 296 295 227 156 188 243 232 232 250 259 264 252 267 199 233 254 284 282 278 290 276 277 240 193 170 170 173 177 187 178 177 174 172 173 179 180 182 179 183
220 222 228 238 243 251 243 204 197 124 255 208 208 238 248 158 210 257 157 132 287 304 272 288 297 280 306 306 152 147 156 160 182 177 175 163 164 162 169 174 174 173 176 169
198 217 221 233 242 248 247 169 151 184 249 221 203 226 253 197 218 123 119 171 203 223 306 347 44 67 39 118 123 125 139 163 162 142 146 151 155 157 156 145 142 144 134 131
193 201 243 257 243 240 29 77 169 284 311 307 250 205 183 161 163 221 199 143 5 8 16 23 74 63 41 86 106 125 135 152 146 135 139 141 141 142 136 128 121 128 134 143
264 213 199 205 252 181 188 190 229 190 226 297 310 268 116 145 195 184 181 155 115 88 92 28 97 84 50 78 98 111 135 129 121 121 127 135 137 139 141 140 142 142 150 163
208 215 237 347 246 273 304 270 208 191 198 290 288 279 189 172 178 173 134 160 188 13 79 71 107 94 77 61 72 105 121 126 123 125 123 125 130 133 139 143 158 166 170 176
240 157 249 241 271 305 268 257 264 259 187 211 312 306 291 185 183 188 170 158 153 139 77 97 101 86 72 70 63 57 88 115 111 116 126 134 136 148 150 152 162 174 191 193
185 199 232 266 277 249 272 334 325 264 240 222 182 212 230 4 140 104 92 86 86 111 99 100 89 88 66 69 59 34 1 93 118 115 131 136 134 133 138 126 107 77 172 197